This is the latest recevied weather packets stored in our database for station/object KB4KY. If no packets are shown the sender has not sent any weather packets the latest 10 day(s).
| Time | Temp. | Humidity | Pressure | Rain* | Wind** | Luminosity | Snow |
|---|---|---|---|---|---|---|---|
| 1778175919 | 16.67° C | 43% | 1014.2 hPa | 0 mm | - | - | - |
| 1778175614 | 16.11° C | 44% | 1014.2 hPa | 0 mm | - | - | - |
| 1778175319 | 16.11° C | 40% | 1014.2 hPa | 0 mm | - | - | - |
| 1778175102 | 15.56° C | 48% | 1014.8 hPa | 0 mm | - | - | - |
| 1778174470 | 15.56° C | 45% | 1014.9 hPa | 0 mm | - | - | - |
| 1778174414 | 16.11° C | 46% | 1014.6 hPa | 0 mm | - | - | - |
| 1778174117 | 15.56° C | 48% | 1014.8 hPa | 0 mm | - | - | - |
| 1778173814 | 15° C | 44% | 1014.8 hPa | 0 mm | - | - | - |
| 1778173520 | 15.56° C | 46% | 1014.8 hPa | 0 mm | - | - | - |
| 1778173213 | 15.56° C | 45% | 1014.9 hPa | 0 mm | - | - | - |
| 1778172919 | 15.56° C | 47% | 1014.9 hPa | 0 mm | - | - | - |
| 1778172611 | 15.56° C | 45% | 1015.1 hPa | 0 mm | - | - | - |
| 1778172311 | 15.56° C | 43% | 1015.2 hPa | 0 mm | - | - | - |
| 1778172009 | 15.56° C | 43% | 1015.4 hPa | 0 mm | - | - | - |
| 1778171714 | 15.56° C | 49% | 1015.3 hPa | 0 mm | - | - | - |
| 1778171418 | 15.56° C | 44% | 1015.6 hPa | 0 mm | - | - | - |
| 1778170815 | 16.11° C | 46% | 1015.4 hPa | 0 mm | - | - | - |
| 1778170514 | 16.11° C | 46% | 1015.4 hPa | 0 mm | - | - | - |
| 1778170210 | 15.56° C | 48% | 1015.5 hPa | 0 mm | - | - | - |
| 1778169914 | 15.56° C | 46% | 1015.6 hPa | 0 mm | - | - | - |
| 1778169703 | 15° C | 49% | 1015.7 hPa | 0 mm | - | - | - |
| 1778169609 | 15.56° C | 49% | 1015.7 hPa | 0 mm | - | - | - |
| 1778169308 | 15.56° C | 47% | 1015.7 hPa | 0 mm | - | - | - |
| 1778169009 | 15° C | 47% | 1015.7 hPa | 0 mm | - | - | - |
| 1778168709 | 15° C | 48% | 1015.7 hPa | 0 mm | - | - | - |
* Rain latest hour (hover to see other rain measurements)
** Current wind speed in m/s (hover to see current wind gust speed)